owner,sensor,date,latitude,longitude,vertical_datum,mass_concentration_of_oxygen_in_sea_water,qcFlag 
DISL,ioos:station:DISL:CATA:1,2013-06-01T00:00:00Z,30.3085,-88.1395,2.398,7.55,1111122 
DISL,ioos:station:DISL:CATA:1,2013-06-01T00:30:00Z,30.3085,-88.1395,2.389,7.55,1111122 
DISL,ioos:station:DISL:CATA:1,2013-06-01T01:00:00Z,30.3085,-88.1395,2.389,7.37,1111122 
DISL,ioos:station:DISL:CATA:1,2013-06-01T01:30:00Z,30.3085,-88.1395,2.378,7.39,1111122 
DISL,ioos:station:DISL:CATA:1,2013-06-01T02:00:00Z,30.3085,-88.1395,2.363,7.22,1111122 
DISL,ioos:station:DISL:CATA:1,2013-06-01T02:30:00Z,30.3085,-88.1395,2.355,7.24,1111122 
DISL,ioos:station:DISL:CATA:1,2013-06-01T03:00:00Z,30.3085,-88.1395,2.354,7.3,1111122 
DISL,ioos:station:DISL:CATA:1,2013-06-01T03:30:00Z,30.3085,-88.1395,2.34,7.23,1111122 
DISL,ioos:station:DISL:CATA:1,2013-06-01T04:00:00Z,30.3085,-88.1395,2.34,7.3,1111122 
DISL,ioos:station:DISL:CATA:1,2013-06-01T04:30:00Z,30.3085,-88.1395,2.332,7.29,1111122 
DISL,ioos:station:DISL:CATA:1,2013-06-01T05:00:00Z,30.3085,-88.1395,2.331,7.31,1111122 
DISL,ioos:station:DISL:CATA:1,2013-06-01T05:30:00Z,30.3085,-88.1395,2.331,7.23,1111122 
DISL,ioos:station:DISL:CATA:1,2013-06-01T06:00:00Z,30.3085,-88.1395,2.348,7.18,1111122 
DISL,ioos:station:DISL:CATA:1,2013-06-01T06:30:00Z,30.3085,-88.1395,2.345,7.12,1111122 
DISL,ioos:station:DISL:CATA:1,2013-06-01T07:00:00Z,30.3085,-88.1395,2.339,7.11,1111122 
DISL,ioos:station:DISL:CATA:1,2013-06-01T07:30:00Z,30.3085,-88.1395,2.37,7.08,1111122 
DISL,ioos:station:DISL:CATA:1,2013-06-01T08:00:00Z,30.3085,-88.1395,2.389,7.09,1111122 
DISL,ioos:station:DISL:CATA:1,2013-06-01T08:30:00Z,30.3085,-88.1395,2.383,6.95,1111122 
DISL,ioos:station:DISL:CATA:1,2013-06-01T09:00:00Z,30.3085,-88.1395,2.385,6.17,1111122 
DISL,ioos:station:DISL:CATA:1,2013-06-01T09:30:00Z,30.3085,-88.1395,2.389,6.38,1111122 
DISL,ioos:station:DISL:CATA:1,2013-06-01T10:00:00Z,30.3085,-88.1395,2.394,6.69,1111122 
DISL,ioos:station:DISL:CATA:1,2013-06-01T10:30:00Z,30.3085,-88.1395,2.394,6.88,1111122 
DISL,ioos:station:DISL:CATA:1,2013-06-01T11:00:00Z,30.3085,-88.1395,2.388,7.1,1111122 
DISL,ioos:station:DISL:CATA:1,2013-06-01T11:30:00Z,30.3085,-88.1395,2.397,7.09,1111122 
DISL,ioos:station:DISL:CATA:1,2013-06-01T12:00:00Z,30.3085,-88.1395,2.404,7.14,1111122 
DISL,ioos:station:DISL:CATA:1,2013-06-01T12:30:00Z,30.3085,-88.1395,2.409,7.22,1111122 
DISL,ioos:station:DISL:CATA:1,2013-06-01T13:00:00Z,30.3085,-88.1395,2.416,7.22,1111122 
DISL,ioos:station:DISL:CATA:1,2013-06-01T13:30:00Z,30.3085,-88.1395,2.433,7.26,1111122 
DISL,ioos:station:DISL:CATA:1,2013-06-01T14:00:00Z,30.3085,-88.1395,2.441,7.26,1111122 
DISL,ioos:station:DISL:CATA:1,2013-06-01T14:30:00Z,30.3085,-88.1395,2.441,7.43,1111122 
DISL,ioos:station:DISL:CATA:1,2013-06-01T15:00:00Z,30.3085,-88.1395,2.436,7.37,1111122 
DISL,ioos:station:DISL:CATA:1,2013-06-01T15:30:00Z,30.3085,-88.1395,2.432,7.45,1111122 
DISL,ioos:station:DISL:CATA:1,2013-06-01T16:00:00Z,30.3085,-88.1395,2.416,7.62,1111122 
DISL,ioos:station:DISL:CATA:1,2013-06-01T16:30:00Z,30.3085,-88.1395,2.411,7.61,1111122 
DISL,ioos:station:DISL:CATA:1,2013-06-01T17:00:00Z,30.3085,-88.1395,2.393,7.69,1111122 
DISL,ioos:station:DISL:CATA:1,2013-06-01T17:30:00Z,30.3085,-88.1395,2.378,7.71,1111122 
DISL,ioos:station:DISL:CATA:1,2013-06-01T18:00:00Z,30.3085,-88.1395,2.36,7.7,1111122 
DISL,ioos:station:DISL:CATA:1,2013-06-01T18:30:00Z,30.3085,-88.1395,2.355,7.67,1111122 
DISL,ioos:station:DISL:CATA:1,2013-06-01T19:00:00Z,30.3085,-88.1395,2.364,7.68,1111122 
DISL,ioos:station:DISL:CATA:1,2013-06-01T19:30:00Z,30.3085,-88.1395,2.348,7.7,1111122 
DISL,ioos:station:DISL:CATA:1,2013-06-01T20:00:00Z,30.3085,-88.1395,2.356,7.7,1111122 
DISL,ioos:station:DISL:CATA:1,2013-06-01T20:30:00Z,30.3085,-88.1395,2.353,7.72,1111122 
DISL,ioos:station:DISL:CATA:1,2013-06-01T21:00:00Z,30.3085,-88.1395,2.352,7.67,1111122 
DISL,ioos:station:DISL:CATA:1,2013-06-01T21:30:00Z,30.3085,-88.1395,2.351,7.68,1111122 
DISL,ioos:station:DISL:CATA:1,2013-06-01T22:00:00Z,30.3085,-88.1395,2.34,7.7,1111122 
DISL,ioos:station:DISL:CATA:1,2013-06-01T22:30:00Z,30.3085,-88.1395,2.319,7.65,1111122 
DISL,ioos:station:DISL:CATA:1,2013-06-01T23:00:00Z,30.3085,-88.1395,2.3,7.12,1111122 
DISL,ioos:station:DISL:CATA:1,2013-06-01T23:30:00Z,30.3085,-88.1395,2.299,7.2,1111122 
DISL,ioos:station:DISL:CATA:1,2013-06-02T00:00:00Z,30.3085,-88.1395,2.303,7.44,1111122 
DISL,ioos:station:DISL:CATA:1,2013-06-02T00:30:00Z,30.3085,-88.1395,2.31,7.53,1111122 
DISL,ioos:station:DISL:CATA:1,2013-06-02T01:00:00Z,30.3085,-88.1395,2.319,7.56,1111122 
DISL,ioos:station:DISL:CATA:1,2013-06-02T01:30:00Z,30.3085,-88.1395,2.312,7.44,1111122 
DISL,ioos:station:DISL:CATA:1,2013-06-02T02:00:00Z,30.3085,-88.1395,2.312,7.35,1111122 
DISL,ioos:station:DISL:CATA:1,2013-06-02T02:30:00Z,30.3085,-88.1395,2.307,7.36,1111122 
DISL,ioos:station:DISL:CATA:1,2013-06-02T03:00:00Z,30.3085,-88.1395,2.312,7.21,1111122 
DISL,ioos:station:DISL:CATA:1,2013-06-02T03:30:00Z,30.3085,-88.1395,2.305,7.15,1111122 
DISL,ioos:station:DISL:CATA:1,2013-06-02T04:00:00Z,30.3085,-88.1395,2.3,7.4,1111122 
DISL,ioos:station:DISL:CATA:1,2013-06-02T04:30:00Z,30.3085,-88.1395,2.306,7.45,1111122 
DISL,ioos:station:DISL:CATA:1,2013-06-02T05:00:00Z,30.3085,-88.1395,2.292,7.67,1111122 
DISL,ioos:station:DISL:CATA:1,2013-06-02T05:30:00Z,30.3085,-88.1395,2.289,7.72,1111122 
DISL,ioos:station:DISL:CATA:1,2013-06-02T06:00:00Z,30.3085,-88.1395,2.296,7.71,1111122 
DISL,ioos:station:DISL:CATA:1,2013-06-02T06:30:00Z,30.3085,-88.1395,2.293,7.58,1111122 
DISL,ioos:station:DISL:CATA:1,2013-06-02T07:00:00Z,30.3085,-88.1395,2.294,7.54,1111122 
DISL,ioos:station:DISL:CATA:1,2013-06-02T07:30:00Z,30.3085,-88.1395,2.307,7.47,1111122 
DISL,ioos:station:DISL:CATA:1,2013-06-02T08:00:00Z,30.3085,-88.1395,2.319,7.4,1111122 
DISL,ioos:station:DISL:CATA:1,2013-06-02T08:30:00Z,30.3085,-88.1395,2.327,6.7,1111122 
DISL,ioos:station:DISL:CATA:1,2013-06-02T09:00:00Z,30.3085,-88.1395,2.334,6.99,1111122 
DISL,ioos:station:DISL:CATA:1,2013-06-02T09:30:00Z,30.3085,-88.1395,2.345,7.0,1111122 
DISL,ioos:station:DISL:CATA:1,2013-06-02T10:00:00Z,30.3085,-88.1395,2.35,7.01,1111122 
DISL,ioos:station:DISL:CATA:1,2013-06-02T10:30:00Z,30.3085,-88.1395,2.368,7.1,1111122 
DISL,ioos:station:DISL:CATA:1,2013-06-02T11:00:00Z,30.3085,-88.1395,2.373,7.12,1111122 
DISL,ioos:station:DISL:CATA:1,2013-06-02T11:30:00Z,30.3085,-88.1395,2.367,7.23,1111122 
DISL,ioos:station:DISL:CATA:1,2013-06-02T12:00:00Z,30.3085,-88.1395,2.349,7.17,1111122 
DISL,ioos:station:DISL:CATA:1,2013-06-02T12:30:00Z,30.3085,-88.1395,2.353,6.74,1111122 
DISL,ioos:station:DISL:CATA:1,2013-06-02T13:00:00Z,30.3085,-88.1395,2.335,7.03,1111122 
DISL,ioos:station:DISL:CATA:1,2013-06-02T13:30:00Z,30.3085,-88.1395,2.337,6.81,1111122 
DISL,ioos:station:DISL:CATA:1,2013-06-02T14:00:00Z,30.3085,-88.1395,2.342,6.73,1111122 
DISL,ioos:station:DISL:CATA:1,2013-06-02T14:30:00Z,30.3085,-88.1395,2.299,6.83,1111122 
DISL,ioos:station:DISL:CATA:1,2013-06-02T15:00:00Z,30.3085,-88.1395,2.274,7.47,1111122 
DISL,ioos:station:DISL:CATA:1,2013-06-02T15:30:00Z,30.3085,-88.1395,2.247,7.51,1111122 
DISL,ioos:station:DISL:CATA:1,2013-06-02T16:00:00Z,30.3085,-88.1395,2.208,7.61,1111122 
DISL,ioos:station:DISL:CATA:1,2013-06-02T16:30:00Z,30.3085,-88.1395,2.17,7.7,1111122 
DISL,ioos:station:DISL:CATA:1,2013-06-02T17:00:00Z,30.3085,-88.1395,2.175,7.74,1111122 
DISL,ioos:station:DISL:CATA:1,2013-06-02T17:30:00Z,30.3085,-88.1395,2.178,7.78,1111122 
DISL,ioos:station:DISL:CATA:1,2013-06-02T18:00:00Z,30.3085,-88.1395,2.195,7.42,1111122 
DISL,ioos:station:DISL:CATA:1,2013-06-02T18:30:00Z,30.3085,-88.1395,2.204,7.6,1111122 
DISL,ioos:station:DISL:CATA:1,2013-06-02T19:00:00Z,30.3085,-88.1395,2.223,7.68,1111122 
DISL,ioos:station:DISL:CATA:1,2013-06-02T19:30:00Z,30.3085,-88.1395,2.227,7.68,1111122 
DISL,ioos:station:DISL:CATA:1,2013-06-02T20:00:00Z,30.3085,-88.1395,2.223,7.2,1111122 
DISL,ioos:station:DISL:CATA:1,2013-06-02T20:30:00Z,30.3085,-88.1395,2.227,7.81,1111122 
DISL,ioos:station:DISL:CATA:1,2013-06-02T21:00:00Z,30.3085,-88.1395,2.21,8.09,1111122 
DISL,ioos:station:DISL:CATA:1,2013-06-02T21:30:00Z,30.3085,-88.1395,2.208,8.29,1111122 
DISL,ioos:station:DISL:CATA:1,2013-06-02T22:00:00Z,30.3085,-88.1395,2.194,8.11,1111122 
DISL,ioos:station:DISL:CATA:1,2013-06-02T22:30:00Z,30.3085,-88.1395,2.186,7.96,1111122 
DISL,ioos:station:DISL:CATA:1,2013-06-02T23:00:00Z,30.3085,-88.1395,2.215,7.87,1111122 
DISL,ioos:station:DISL:CATA:1,2013-06-02T23:30:00Z,30.3085,-88.1395,2.219,7.85,1111122 
DISL,ioos:station:DISL:CATA:1,2013-06-03T00:00:00Z,30.3085,-88.1395,2.225,7.73,1111122 
DISL,ioos:station:DISL:CATA:1,2013-06-03T00:30:00Z,30.3085,-88.1395,2.23,7.67,1111122 
DISL,ioos:station:DISL:CATA:1,2013-06-03T01:00:00Z,30.3085,-88.1395,2.251,7.59,1111122 
DISL,ioos:station:DISL:CATA:1,2013-06-03T01:30:00Z,30.3085,-88.1395,2.273,7.46,1111122 
DISL,ioos:station:DISL:CATA:1,2013-06-03T02:00:00Z,30.3085,-88.1395,2.27,7.36,1111122 
DISL,ioos:station:DISL:CATA:1,2013-06-03T02:30:00Z,30.3085,-88.1395,2.278,7.06,1111122 
DISL,ioos:station:DISL:CATA:1,2013-06-03T03:00:00Z,30.3085,-88.1395,2.299,7.37,1111122 
DISL,ioos:station:DISL:CATA:1,2013-06-03T03:30:00Z,30.3085,-88.1395,2.346,7.09,1111122 
DISL,ioos:station:DISL:CATA:1,2013-06-03T04:00:00Z,30.3085,-88.1395,2.336,7.06,1111122 
DISL,ioos:station:DISL:CATA:1,2013-06-03T04:30:00Z,30.3085,-88.1395,2.293,6.75,1111122 
DISL,ioos:station:DISL:CATA:1,2013-06-03T05:00:00Z,30.3085,-88.1395,2.244,6.36,1111122 
DISL,ioos:station:DISL:CATA:1,2013-06-03T05:30:00Z,30.3085,-88.1395,2.27,6.42,1111122 
DISL,ioos:station:DISL:CATA:1,2013-06-03T06:00:00Z,30.3085,-88.1395,2.273,6.02,1111122 
DISL,ioos:station:DISL:CATA:1,2013-06-03T06:30:00Z,30.3085,-88.1395,2.229,4.98,1111122 
DISL,ioos:station:DISL:CATA:1,2013-06-03T07:00:00Z,30.3085,-88.1395,2.216,5.7,1111122 
DISL,ioos:station:DISL:CATA:1,2013-06-03T07:30:00Z,30.3085,-88.1395,2.253,5.66,1111122 
DISL,ioos:station:DISL:CATA:1,2013-06-03T08:00:00Z,30.3085,-88.1395,2.28,6.41,1111122 
DISL,ioos:station:DISL:CATA:1,2013-06-03T08:30:00Z,30.3085,-88.1395,2.304,6.44,1111122 
DISL,ioos:station:DISL:CATA:1,2013-06-03T09:00:00Z,30.3085,-88.1395,2.339,5.91,1111122 
DISL,ioos:station:DISL:CATA:1,2013-06-03T09:30:00Z,30.3085,-88.1395,2.364,6.38,1111122 
DISL,ioos:station:DISL:CATA:1,2013-06-03T10:00:00Z,30.3085,-88.1395,2.388,6.31,1111122 
DISL,ioos:station:DISL:CATA:1,2013-06-03T10:30:00Z,30.3085,-88.1395,2.386,5.93,1111122 
DISL,ioos:station:DISL:CATA:1,2013-06-03T11:00:00Z,30.3085,-88.1395,2.39,6.15,1111122 
DISL,ioos:station:DISL:CATA:1,2013-06-03T11:30:00Z,30.3085,-88.1395,2.405,6.28,1111122 
DISL,ioos:station:DISL:CATA:1,2013-06-03T12:00:00Z,30.3085,-88.1395,2.404,6.5,1111122 
DISL,ioos:station:DISL:CATA:1,2013-06-03T12:30:00Z,30.3085,-88.1395,2.39,6.51,1111122 
DISL,ioos:station:DISL:CATA:1,2013-06-03T13:00:00Z,30.3085,-88.1395,2.386,6.55,1111122 
DISL,ioos:station:DISL:CATA:1,2013-06-03T13:30:00Z,30.3085,-88.1395,2.399,6.3,1111122 
DISL,ioos:station:DISL:CATA:1,2013-06-03T14:00:00Z,30.3085,-88.1395,2.388,5.53,1111122 
DISL,ioos:station:DISL:CATA:1,2013-06-03T14:30:00Z,30.3085,-88.1395,2.394,6.11,1111122 
DISL,ioos:station:DISL:CATA:1,2013-06-03T15:00:00Z,30.3085,-88.1395,2.386,6.13,1111122 
DISL,ioos:station:DISL:CATA:1,2013-06-03T15:30:00Z,30.3085,-88.1395,2.377,6.24,1111122 
DISL,ioos:station:DISL:CATA:1,2013-06-03T16:00:00Z,30.3085,-88.1395,2.341,6.11,1111122 
DISL,ioos:station:DISL:CATA:1,2013-06-03T16:30:00Z,30.3085,-88.1395,2.309,6.15,1111122 
DISL,ioos:station:DISL:CATA:1,2013-06-03T17:00:00Z,30.3085,-88.1395,2.279,5.88,1111122 
DISL,ioos:station:DISL:CATA:1,2013-06-03T17:30:00Z,30.3085,-88.1395,2.233,6.26,1111122 
DISL,ioos:station:DISL:CATA:1,2013-06-03T18:00:00Z,30.3085,-88.1395,2.199,6.89,1111122 
DISL,ioos:station:DISL:CATA:1,2013-06-03T18:30:00Z,30.3085,-88.1395,2.161,7.3,1111122 
DISL,ioos:station:DISL:CATA:1,2013-06-03T19:00:00Z,30.3085,-88.1395,2.136,7.26,1111122 
DISL,ioos:station:DISL:CATA:1,2013-06-03T19:30:00Z,30.3085,-88.1395,2.121,7.36,1111122 
DISL,ioos:station:DISL:CATA:1,2013-06-03T20:00:00Z,30.3085,-88.1395,2.103,7.49,1111122 
DISL,ioos:station:DISL:CATA:1,2013-06-03T20:30:00Z,30.3085,-88.1395,2.096,7.63,1111122 
DISL,ioos:station:DISL:CATA:1,2013-06-03T21:00:00Z,30.3085,-88.1395,2.084,7.64,1111122 
DISL,ioos:station:DISL:CATA:1,2013-06-03T21:30:00Z,30.3085,-88.1395,2.07,7.62,1111122 
DISL,ioos:station:DISL:CATA:1,2013-06-03T22:00:00Z,30.3085,-88.1395,2.06,7.63,1111122 
DISL,ioos:station:DISL:CATA:1,2013-06-03T22:30:00Z,30.3085,-88.1395,2.062,7.65,1111122 
DISL,ioos:station:DISL:CATA:1,2013-06-03T23:00:00Z,30.3085,-88.1395,2.058,7.69,1111122 
DISL,ioos:station:DISL:CATA:1,2013-06-03T23:30:00Z,30.3085,-88.1395,2.07,7.8,1111122 
DISL,ioos:station:DISL:CATA:1,2013-06-04T00:00:00Z,30.3085,-88.1395,2.085,7.87,1111122 
DISL,ioos:station:DISL:CATA:1,2013-06-04T00:30:00Z,30.3085,-88.1395,2.094,7.74,1111122 
DISL,ioos:station:DISL:CATA:1,2013-06-04T01:00:00Z,30.3085,-88.1395,2.093,6.25,1111122 
DISL,ioos:station:DISL:CATA:1,2013-06-04T01:30:00Z,30.3085,-88.1395,2.103,7.51,1111122 
DISL,ioos:station:DISL:CATA:1,2013-06-04T02:00:00Z,30.3085,-88.1395,2.116,7.4,1111122 
DISL,ioos:station:DISL:CATA:1,2013-06-04T02:30:00Z,30.3085,-88.1395,2.134,6.98,1111122 
DISL,ioos:station:DISL:CATA:1,2013-06-04T03:00:00Z,30.3085,-88.1395,2.147,6.94,1111122 
DISL,ioos:station:DISL:CATA:1,2013-06-04T03:30:00Z,30.3085,-88.1395,2.158,7.14,1111122 
DISL,ioos:station:DISL:CATA:1,2013-06-04T04:00:00Z,30.3085,-88.1395,2.179,7.08,1111122 
DISL,ioos:station:DISL:CATA:1,2013-06-04T04:30:00Z,30.3085,-88.1395,2.202,7.0,1111122 
DISL,ioos:station:DISL:CATA:1,2013-06-04T05:00:00Z,30.3085,-88.1395,2.213,6.96,1111122 
DISL,ioos:station:DISL:CATA:1,2013-06-04T05:30:00Z,30.3085,-88.1395,2.226,7.04,1111122 
DISL,ioos:station:DISL:CATA:1,2013-06-04T06:00:00Z,30.3085,-88.1395,2.246,7.06,1111122 
DISL,ioos:station:DISL:CATA:1,2013-06-04T06:30:00Z,30.3085,-88.1395,2.271,7.07,1111122 
DISL,ioos:station:DISL:CATA:1,2013-06-04T07:00:00Z,30.3085,-88.1395,2.278,7.09,1111122 
DISL,ioos:station:DISL:CATA:1,2013-06-04T07:30:00Z,30.3085,-88.1395,2.306,6.94,1111122 
DISL,ioos:station:DISL:CATA:1,2013-06-04T08:00:00Z,30.3085,-88.1395,2.326,6.91,1111122 
DISL,ioos:station:DISL:CATA:1,2013-06-04T08:30:00Z,30.3085,-88.1395,2.35,6.83,1111122 
DISL,ioos:station:DISL:CATA:1,2013-06-04T09:00:00Z,30.3085,-88.1395,2.355,6.85,1111122 
DISL,ioos:station:DISL:CATA:1,2013-06-04T09:30:00Z,30.3085,-88.1395,2.379,6.84,1111122 
DISL,ioos:station:DISL:CATA:1,2013-06-04T10:00:00Z,30.3085,-88.1395,2.396,6.84,1111122 
DISL,ioos:station:DISL:CATA:1,2013-06-04T10:30:00Z,30.3085,-88.1395,2.41,6.84,1111122 
DISL,ioos:station:DISL:CATA:1,2013-06-04T11:00:00Z,30.3085,-88.1395,2.413,6.67,1111122 
DISL,ioos:station:DISL:CATA:1,2013-06-04T11:30:00Z,30.3085,-88.1395,2.423,6.5,1111122 
DISL,ioos:station:DISL:CATA:1,2013-06-04T12:00:00Z,30.3085,-88.1395,2.429,6.39,1111122 
DISL,ioos:station:DISL:CATA:1,2013-06-04T12:30:00Z,30.3085,-88.1395,2.43,5.99,1111122 
DISL,ioos:station:DISL:CATA:1,2013-06-04T13:00:00Z,30.3085,-88.1395,2.417,5.71,1111122 
DISL,ioos:station:DISL:CATA:1,2013-06-04T13:30:00Z,30.3085,-88.1395,2.406,5.33,1111122 
DISL,ioos:station:DISL:CATA:1,2013-06-04T14:00:00Z,30.3085,-88.1395,2.4,4.4,1111122 
DISL,ioos:station:DISL:CATA:1,2013-06-04T14:30:00Z,30.3085,-88.1395,2.385,3.49,1111122 
DISL,ioos:station:DISL:CATA:1,2013-06-04T15:00:00Z,30.3085,-88.1395,2.375,3.25,1111122 
DISL,ioos:station:DISL:CATA:1,2013-06-04T15:30:00Z,30.3085,-88.1395,2.363,4.9,1111122 
DISL,ioos:station:DISL:CATA:1,2013-06-04T16:00:00Z,30.3085,-88.1395,2.348,5.83,1111122 
DISL,ioos:station:DISL:CATA:1,2013-06-04T16:30:00Z,30.3085,-88.1395,2.331,6.79,1111122 
DISL,ioos:station:DISL:CATA:1,2013-06-04T17:00:00Z,30.3085,-88.1395,2.308,7.05,1111122 
DISL,ioos:station:DISL:CATA:1,2013-06-04T17:30:00Z,30.3085,-88.1395,2.283,7.18,1111122 
DISL,ioos:station:DISL:CATA:1,2013-06-04T18:00:00Z,30.3085,-88.1395,2.25,7.16,1111122 
DISL,ioos:station:DISL:CATA:1,2013-06-04T18:30:00Z,30.3085,-88.1395,2.212,7.25,1111122 
DISL,ioos:station:DISL:CATA:1,2013-06-04T19:00:00Z,30.3085,-88.1395,2.175,7.37,1111122 
DISL,ioos:station:DISL:CATA:1,2013-06-04T19:30:00Z,30.3085,-88.1395,2.147,7.48,1111122 
DISL,ioos:station:DISL:CATA:1,2013-06-04T20:00:00Z,30.3085,-88.1395,2.113,7.57,1111122 
DISL,ioos:station:DISL:CATA:1,2013-06-04T20:30:00Z,30.3085,-88.1395,2.082,7.59,1111122 
DISL,ioos:station:DISL:CATA:1,2013-06-04T21:00:00Z,30.3085,-88.1395,2.056,7.67,1111122 
DISL,ioos:station:DISL:CATA:1,2013-06-04T21:30:00Z,30.3085,-88.1395,2.038,7.69,1111122 
DISL,ioos:station:DISL:CATA:1,2013-06-04T22:00:00Z,30.3085,-88.1395,2.024,7.69,1111122 
DISL,ioos:station:DISL:CATA:1,2013-06-04T22:30:00Z,30.3085,-88.1395,2.02,7.7,1111122 
DISL,ioos:station:DISL:CATA:1,2013-06-04T23:00:00Z,30.3085,-88.1395,2.031,7.68,1111122 
DISL,ioos:station:DISL:CATA:1,2013-06-04T23:30:00Z,30.3085,-88.1395,2.038,7.66,1111122 
DISL,ioos:station:DISL:CATA:1,2013-06-05T00:00:00Z,30.3085,-88.1395,2.053,7.6,1111122 
DISL,ioos:station:DISL:CATA:1,2013-06-05T00:30:00Z,30.3085,-88.1395,2.07,7.57,1111122 
DISL,ioos:station:DISL:CATA:1,2013-06-05T01:00:00Z,30.3085,-88.1395,2.068,7.52,1111122 
DISL,ioos:station:DISL:CATA:1,2013-06-05T01:30:00Z,30.3085,-88.1395,2.075,7.48,1111122 
DISL,ioos:station:DISL:CATA:1,2013-06-05T02:00:00Z,30.3085,-88.1395,2.084,7.62,1111122 
DISL,ioos:station:DISL:CATA:1,2013-06-05T02:30:00Z,30.3085,-88.1395,2.095,7.74,1111122 
DISL,ioos:station:DISL:CATA:1,2013-06-05T03:00:00Z,30.3085,-88.1395,2.106,7.62,1111122 
DISL,ioos:station:DISL:CATA:1,2013-06-05T03:30:00Z,30.3085,-88.1395,2.137,7.58,1111122 
DISL,ioos:station:DISL:CATA:1,2013-06-05T04:00:00Z,30.3085,-88.1395,2.169,7.39,1111122 
DISL,ioos:station:DISL:CATA:1,2013-06-05T04:30:00Z,30.3085,-88.1395,2.2,7.39,1111122 
DISL,ioos:station:DISL:CATA:1,2013-06-05T05:00:00Z,30.3085,-88.1395,2.208,7.44,1111122 
DISL,ioos:station:DISL:CATA:1,2013-06-05T05:30:00Z,30.3085,-88.1395,2.229,7.32,1111122 
DISL,ioos:station:DISL:CATA:1,2013-06-05T06:00:00Z,30.3085,-88.1395,2.255,7.22,1111122 
DISL,ioos:station:DISL:CATA:1,2013-06-05T06:30:00Z,30.3085,-88.1395,2.278,7.13,1111122 
DISL,ioos:station:DISL:CATA:1,2013-06-05T07:00:00Z,30.3085,-88.1395,2.299,7.04,1111122 
DISL,ioos:station:DISL:CATA:1,2013-06-05T07:30:00Z,30.3085,-88.1395,2.317,6.9,1111122 
DISL,ioos:station:DISL:CATA:1,2013-06-05T08:00:00Z,30.3085,-88.1395,2.327,6.84,1111122 
DISL,ioos:station:DISL:CATA:1,2013-06-05T08:30:00Z,30.3085,-88.1395,2.346,6.87,1111122 
DISL,ioos:station:DISL:CATA:1,2013-06-05T09:00:00Z,30.3085,-88.1395,2.369,6.81,1111122 
DISL,ioos:station:DISL:CATA:1,2013-06-05T09:30:00Z,30.3085,-88.1395,2.393,6.69,1111122 
DISL,ioos:station:DISL:CATA:1,2013-06-05T10:00:00Z,30.3085,-88.1395,2.416,6.6,1111122 
DISL,ioos:station:DISL:CATA:1,2013-06-05T10:30:00Z,30.3085,-88.1395,2.455,6.65,1111122 
DISL,ioos:station:DISL:CATA:1,2013-06-05T11:00:00Z,30.3085,-88.1395,2.466,6.65,1111122 
DISL,ioos:station:DISL:CATA:1,2013-06-05T11:30:00Z,30.3085,-88.1395,2.485,6.59,1111122 
DISL,ioos:station:DISL:CATA:1,2013-06-05T12:00:00Z,30.3085,-88.1395,2.499,6.61,1111122 
DISL,ioos:station:DISL:CATA:1,2013-06-05T12:30:00Z,30.3085,-88.1395,2.516,6.47,1111122 
DISL,ioos:station:DISL:CATA:1,2013-06-05T13:00:00Z,30.3085,-88.1395,2.499,6.34,1111122 
DISL,ioos:station:DISL:CATA:1,2013-06-05T13:30:00Z,30.3085,-88.1395,2.493,6.35,1111122 
DISL,ioos:station:DISL:CATA:1,2013-06-05T14:00:00Z,30.3085,-88.1395,2.488,6.13,1111122 
DISL,ioos:station:DISL:CATA:1,2013-06-05T14:30:00Z,30.3085,-88.1395,2.5,6.45,1111122 
DISL,ioos:station:DISL:CATA:1,2013-06-05T15:00:00Z,30.3085,-88.1395,2.481,6.34,1111122 
DISL,ioos:station:DISL:CATA:1,2013-06-05T15:30:00Z,30.3085,-88.1395,2.467,6.37,1111122 
DISL,ioos:station:DISL:CATA:1,2013-06-05T16:00:00Z,30.3085,-88.1395,2.452,6.48,1111122 
DISL,ioos:station:DISL:CATA:1,2013-06-05T16:30:00Z,30.3085,-88.1395,2.433,6.69,1111122 
DISL,ioos:station:DISL:CATA:1,2013-06-05T17:00:00Z,30.3085,-88.1395,2.403,6.82,1111122 
DISL,ioos:station:DISL:CATA:1,2013-06-05T17:30:00Z,30.3085,-88.1395,2.367,6.86,1111122 
DISL,ioos:station:DISL:CATA:1,2013-06-05T18:00:00Z,30.3085,-88.1395,2.347,7.11,1111122 
DISL,ioos:station:DISL:CATA:1,2013-06-05T18:30:00Z,30.3085,-88.1395,2.325,7.49,1111122 
DISL,ioos:station:DISL:CATA:1,2013-06-05T19:00:00Z,30.3085,-88.1395,2.277,7.43,1111122 
DISL,ioos:station:DISL:CATA:1,2013-06-05T19:30:00Z,30.3085,-88.1395,2.228,7.51,1111122 
DISL,ioos:station:DISL:CATA:1,2013-06-05T20:00:00Z,30.3085,-88.1395,2.177,7.46,1111122 
DISL,ioos:station:DISL:CATA:1,2013-06-05T20:30:00Z,30.3085,-88.1395,2.134,7.46,1111122 
DISL,ioos:station:DISL:CATA:1,2013-06-05T21:00:00Z,30.3085,-88.1395,2.098,7.42,1111122 
DISL,ioos:station:DISL:CATA:1,2013-06-05T21:30:00Z,30.3085,-88.1395,2.072,7.39,1111122 
DISL,ioos:station:DISL:CATA:1,2013-06-05T22:00:00Z,30.3085,-88.1395,2.061,7.37,1111122 
DISL,ioos:station:DISL:CATA:1,2013-06-05T22:30:00Z,30.3085,-88.1395,2.061,7.38,1111122 
DISL,ioos:station:DISL:CATA:1,2013-06-05T23:00:00Z,30.3085,-88.1395,2.073,7.39,1111122 
DISL,ioos:station:DISL:CATA:1,2013-06-05T23:30:00Z,30.3085,-88.1395,2.089,7.4,1111122 
DISL,ioos:station:DISL:CATA:1,2013-06-06T00:00:00Z,30.3085,-88.1395,2.1,7.4,1111122 
DISL,ioos:station:DISL:CATA:1,2013-06-06T00:30:00Z,30.3085,-88.1395,2.103,7.36,1111122 
DISL,ioos:station:DISL:CATA:1,2013-06-06T01:00:00Z,30.3085,-88.1395,2.103,7.39,1111122 
DISL,ioos:station:DISL:CATA:1,2013-06-06T01:30:00Z,30.3085,-88.1395,2.112,7.39,1111122 
DISL,ioos:station:DISL:CATA:1,2013-06-06T02:00:00Z,30.3085,-88.1395,2.135,7.39,1111122 
DISL,ioos:station:DISL:CATA:1,2013-06-06T02:30:00Z,30.3085,-88.1395,2.14,7.48,1111122 
DISL,ioos:station:DISL:CATA:1,2013-06-06T03:00:00Z,30.3085,-88.1395,2.138,7.36,1111122 
DISL,ioos:station:DISL:CATA:1,2013-06-06T03:30:00Z,30.3085,-88.1395,2.147,7.2,1111122 
DISL,ioos:station:DISL:CATA:1,2013-06-06T04:00:00Z,30.3085,-88.1395,2.179,7.08,1111122 
DISL,ioos:station:DISL:CATA:1,2013-06-06T04:30:00Z,30.3085,-88.1395,2.213,7.06,1111122 
DISL,ioos:station:DISL:CATA:1,2013-06-06T05:00:00Z,30.3085,-88.1395,2.264,7.1,1111122 
DISL,ioos:station:DISL:CATA:1,2013-06-06T05:30:00Z,30.3085,-88.1395,2.174,7.04,1111122 
DISL,ioos:station:DISL:CATA:1,2013-06-06T06:00:00Z,30.3085,-88.1395,2.136,7.02,1111122 
DISL,ioos:station:DISL:CATA:1,2013-06-06T06:30:00Z,30.3085,-88.1395,2.153,7.06,1111122 
DISL,ioos:station:DISL:CATA:1,2013-06-06T07:00:00Z,30.3085,-88.1395,2.207,7.09,1111122 
DISL,ioos:station:DISL:CATA:1,2013-06-06T07:30:00Z,30.3085,-88.1395,2.253,6.86,1111122 
DISL,ioos:station:DISL:CATA:1,2013-06-06T08:00:00Z,30.3085,-88.1395,2.297,6.32,1111122 
DISL,ioos:station:DISL:CATA:1,2013-06-06T08:30:00Z,30.3085,-88.1395,2.312,6.48,1111122 
DISL,ioos:station:DISL:CATA:1,2013-06-06T09:00:00Z,30.3085,-88.1395,2.363,6.39,1111122 
DISL,ioos:station:DISL:CATA:1,2013-06-06T09:30:00Z,30.3085,-88.1395,2.386,6.46,1111122 
DISL,ioos:station:DISL:CATA:1,2013-06-06T10:00:00Z,30.3085,-88.1395,2.437,6.49,1111122 
DISL,ioos:station:DISL:CATA:1,2013-06-06T10:30:00Z,30.3085,-88.1395,2.492,6.72,1111122 
DISL,ioos:station:DISL:CATA:1,2013-06-06T11:00:00Z,30.3085,-88.1395,2.502,6.71,1111122 
DISL,ioos:station:DISL:CATA:1,2013-06-06T11:30:00Z,30.3085,-88.1395,2.544,6.73,1111122 
DISL,ioos:station:DISL:CATA:1,2013-06-06T12:00:00Z,30.3085,-88.1395,2.555,6.71,1111122 
DISL,ioos:station:DISL:CATA:1,2013-06-06T12:30:00Z,30.3085,-88.1395,2.567,6.8,1111122 
DISL,ioos:station:DISL:CATA:1,2013-06-06T13:00:00Z,30.3085,-88.1395,2.601,6.88,1111122 
DISL,ioos:station:DISL:CATA:1,2013-06-06T13:30:00Z,30.3085,-88.1395,2.617,6.89,1111122 
DISL,ioos:station:DISL:CATA:1,2013-06-06T14:00:00Z,30.3085,-88.1395,2.611,4.76,1111122 
DISL,ioos:station:DISL:CATA:1,2013-06-06T14:30:00Z,30.3085,-88.1395,2.596,4.67,1111122 
DISL,ioos:station:DISL:CATA:1,2013-06-06T15:00:00Z,30.3085,-88.1395,2.597,4.73,1111122 
DISL,ioos:station:DISL:CATA:1,2013-06-06T15:30:00Z,30.3085,-88.1395,2.578,4.68,1111122 